EHI
0 0 0 0 0 0 0 0 0 0 0 0 2 4 5 7 9 12 20 29 36 39 42 42 40 47 60 68 66 55 50 52 47 35 27 24 24 25 28 31 32 26 21 20
0 0 0 0 0 0 0 0 0 0 0 0 2 4 6 8 11 14 20 27 34 41 48 51 51 52 59 68 67 60 57 56 50 40 32 28 27 26 26 29 31 27 23 23
0 0 0 0 0 0 0 0 0 0 0 0 1 3 7 10 12 16 21 25 31 42 54 61 62 60 62 67 68 65 64 63 56 46 37 33 32 30 28 29 30 27 25 25
0 0 0 0 0 0 0 0 0 0 0 0 0 2 7 10 14 18 23 25 29 40 54 64 68 69 69 69 68 68 70 67 59 49 41 36 34 33 31 31 30 29 28 27
0 0 0 0 0 0 0 0 0 0 0 0 0 2 6 11 15 20 24 25 27 36 49 60 66 71 71 69 68 71 73 69 58 49 43 37 34 33 32 32 32 32 31 30
0 0 0 0 0 0 0 0 0 0 0 0 0 1 5 10 15 21 24 23 24 31 43 54 61 66 67 67 70 74 75 71 60 50 43 39 36 34 34 34 33 31 30 29
0 0 0 0 0 0 0 0 0 0 0 0 0 2 5 10 15 21 24 24 23 28 40 52 60 64 66 67 73 78 78 73 63 54 46 42 40 39 39 39 35 29 25 25
0 0 0 0 0 0 0 0 0 0 0 0 0 2 7 11 14 19 24 26 26 29 38 49 58 64 66 69 74 79 79 72 64 57 51 45 42 41 41 40 35 28 23 22
0 0 0 0 0 0 0 0 0 0 0 0 1 4 9 11 12 16 24 27 29 32 38 46 54 61 66 69 75 79 77 71 62 57 53 48 44 41 40 38 35 29 25 23
0 0 0 0 0 0 0 0 0 0 0 0 1 5 10 12 13 18 25 29 31 34 40 47 55 61 65 67 72 76 74 68 61 56 53 49 45 42 39 37 35 32 29 28
0 0 0 0 0 0 0 0 0 0 0 0 1 4 8 12 15 21 27 30 31 34 41 51 58 62 62 63 66 71 69 65 61 57 52 49 47 45 42 39 37 36 35 34
0 0 0 0 0 0 0 0 0 0 0 0 1 4 8 11 16 24 29 29 29 33 41 51 59 64 64 62 64 66 65 62 60 56 51 48 46 45 44 42 41 41 41 40
0 0 0 0 0 0 0 0 0 0 0 0 2 6 10 13 18 26 30 29 31 35 43 54 63 69 71 69 66 65 61 59 57 55 51 48 46 44 44 44 44 45 44 44
0 0 0 0 0 0 0 0 0 0 0 0 2 7 12 15 21 27 30 32 36 41 49 60 69 75 76 74 70 64 59 56 55 54 51 50 48 46 44 42 41 43 43 42
0 0 0 0 0 0 0 0 0 0 0 1 4 8 12 16 22 28 30 34 40 45 51 61 70 74 75 74 70 64 59 55 53 52 51 50 49 48 46 42 38 38 39 39
0 0 0 0 0 0 0 0 0 0 0 2 6 10 14 18 24 29 32 35 39 43 50 60 67 70 72 73 70 64 57 53 51 49 48 47 47 47 46 41 36 36 37 37
0 0 0 0 0 0 0 0 0 0 0 2 6 11 16 22 28 33 36 36 37 42 52 61 65 66 69 70 66 59 52 48 46 46 45 45 45 47 45 39 35 36 36 34
1 1 1 0 0 0 0 0 0 0 1 3 6 11 18 24 30 35 38 40 42 47 55 60 60 60 63 63 57 49 43 41 41 42 42 42 44 45 41 36 33 34 34 32
1 2 1 0 0 0 0 0 0 1 3 7 9 13 19 24 28 35 41 45 48 53 57 56 52 53 58 57 51 43 37 36 36 38 38 39 41 40 36 33 32 31 30 30
1 1 1 0 0 0 0 0 0 2 5 10 14 16 20 24 29 37 44 49 52 55 55 52 48 50 56 58 54 45 37 34 34 34 34 35 37 34 31 31 31 30 28 28
0 1 1 1 0 0 0 1 5 9 14 16 18 22 26 29 33 39 45 50 53 52 50 48 47 50 54 57 56 49 41 37 34 33 33 33 33 30 25 25 27 27 26 25
0 1 2 2 3 5 7 9 15 23 25 21 22 26 30 32 32 36 43 46 46 45 42 41 44 46 49 51 50 45 39 34 31 31 30 28 28 25 22 22 23 24 24 22
1 3 5 7 10 16 20 21 24 27 26 22 22 24 25 26 28 33 40 42 40 38 36 37 39 40 41 41 39 34 30 27 26 26 25 24 23 23 23 22 22 22 21 19
3 6 10 14 18 23 25 25 23 22 20 18 18 18 17 20 27 35 40 42 40 36 35 37 38 36 34 32 27 23 22 22 22 21 21 21 21 22 23 22 20 19 18 16
6 8 13 17 20 22 23 21 20 19 18 15 14 13 13 19 29 36 41 42 40 38 38 39 39 37 32 29 24 19 19 19 19 19 18 18 17 18 19 16 13 11 10 10
9 9 13 17 19 21 22 19 17 18 17 15 14 12 13 19 28 35 40 42 40 39 40 40 40 38 34 29 25 20 17 17 17 18 17 15 14 16 15 11 6 4 4 4
Wind_Speed
10 11 12 11 11 10 10 9 7 6 7 6 5 5 9 11 10 10 11 12 13 12 13 11 11 11 11 9 8 7 6 5 4 3 3 3 2 2 2 3 4 3 2 2
10 14 12 10 9 11 11 10 8 6 7 5 5 6 6 9 10 10 10 11 13 13 13 12 11 11 11 10 9 7 6 6 5 3 2 2 2 2 2 2 3 4 3 3
15 9 10 10 11 11 11 10 9 5 6 8 7 8 8 8 9 10 10 11 12 14 15 14 12 11 11 11 10 8 7 6 5 4 3 2 2 1 1 2 2 3 3 3
13 10 9 11 11 11 10 11 9 8 7 7 9 6 8 9 8 10 10 10 11 12 14 14 13 12 11 11 10 8 7 6 5 5 4 3 3 3 2 2 2 3 4 3
12 12 10 11 11 10 10 7 8 10 10 10 9 7 6 9 11 9 9 9 10 11 12 14 14 13 11 11 11 9 7 6 5 5 4 4 3 2 2 2 2 2 3 3
14 10 11 11 10 10 10 8 8 10 10 12 11 9 6 7 9 9 9 10 9 10 11 11 12 11 10 11 10 10 8 6 6 5 4 4 3 2 1 1 2 3 3 3
15 13 11 10 12 12 12 9 7 9 9 10 10 9 4 6 7 7 8 8 9 9 10 11 11 11 10 10 10 9 9 8 7 6 5 4 3 3 2 2 2 3 2 2
15 15 14 13 14 11 13 14 10 8 8 8 9 8 4 6 7 7 8 7 7 9 8 10 10 10 11 11 9 9 9 8 7 6 4 3 3 3 2 3 2 2 2 1
11 13 15 14 14 14 14 14 15 13 13 10 7 7 7 6 7 8 8 7 7 8 9 9 9 10 10 10 10 10 10 8 6 6 4 3 3 3 2 2 2 2 2 1
11 10 12 13 12 15 14 13 10 11 9 11 9 9 8 10 9 9 9 8 7 8 8 9 9 9 9 9 9 9 8 7 6 6 5 5 4 3 2 1 1 1 1 1
14 10 11 13 14 15 15 15 12 9 9 11 8 3 4 9 9 10 9 8 7 8 9 9 9 9 9 9 9 8 8 7 6 5 5 3 4 3 2 1 1 1 1 1
13 10 10 13 13 14 14 14 13 10 8 9 8 2 4 5 6 8 9 9 7 7 9 9 10 9 8 8 8 8 7 7 6 5 4 3 2 2 2 1 1 1 1 1
9 8 9 11 12 13 13 13 14 12 9 9 10 4 3 4 4 7 8 9 8 6 8 9 8 8 7 7 6 7 6 6 6 6 5 4 3 2 2 1 1 0 0 1
6 9 11 12 9 12 14 15 15 13 10 10 10 7 6 7 5 7 7 8 9 8 7 8 8 7 7 6 6 6 6 5 5 5 4 4 3 2 2 1 1 1 1 1
7 11 13 14 13 12 13 16 17 16 14 12 10 9 10 9 8 8 8 8 8 8 8 8 8 7 7 7 6 5 5 5 4 4 3 3 3 2 2 2 2 1 1 1
8 9 12 14 15 13 12 14 15 16 14 13 10 5 5 8 8 7 8 8 8 8 8 9 8 7 7 6 6 5 4 4 4 4 3 3 3 2 2 2 2 2 2 2
9 8 11 12 13 13 15 13 12 12 12 11 9 5 5 6 8 8 7 6 5 6 7 8 8 7 6 5 5 5 5 4 4 4 3 3 3 3 2 2 2 3 2 2
7 7 8 11 12 15 10 8 9 10 8 6 6 6 5 5 9 7 6 6 6 6 7 6 7 7 6 6 5 5 5 5 4 4 3 2 2 3 3 3 2 2 2 2
8 7 8 10 12 12 9 7 7 7 5 4 4 5 6 5 7 6 5 5 5 6 7 6 7 8 6 6 6 5 5 5 4 3 3 2 3 3 3 2 2 2 2 2
10 8 9 10 11 11 7 5 5 6 6 3 3 5 7 5 3 4 5 6 7 8 7 6 6 7 6 5 5 5 5 5 4 3 3 3 3 3 3 3 2 2 2 2
13 12 12 12 11 7 4 3 5 8 3 2 2 3 5 2 4 6 7 7 7 7 8 8 7 6 6 5 5 5 5 5 4 4 4 4 3 3 3 3 2 2 2 2
12 11 12 11 12 6 2 3 2 3 4 3 4 6 7 7 7 8 8 8 7 7 8 8 7 6 6 6 6 6 5 5 5 5 4 4 3 3 3 3 2 2 2 2
9 6 4 4 2 3 5 6 6 6 5 4 5 7 6 6 6 7 7 7 7 6 6 7 7 7 6 5 4 5 4 4 5 5 4 3 3 4 3 3 3 2 1 1
5 4 4 2 3 4 5 5 5 5 5 5 6 7 6 4 5 6 7 6 6 6 5 5 7 6 5 4 4 4 4 4 5 5 4 3 3 4 3 2 2 2 2 1
1 1 3 3 3 3 3 2 4 5 5 5 5 5 4 4 5 6 6 5 5 5 5 5 5 5 5 3 2 4 4 4 4 4 3 3 3 4 4 5 5 4 4 3
2 1 2 2 2 1 3 3 3 3 2 3 4 3 3 3 4 5 5 4 5 5 4 4 4 5 5 4 3 3 3 4 4 3 3 2 3 3 3 4 5 9 6 6
Wind_Direction
213 227 229 227 223 234 253 248 236 189 162 189 199 198 169 164 167 166 166 164 164 164 162 160 162 158 153 150 153 160 166 161 164 171 184 197 194 192 185 172 167 175 189 175
217 227 235 245 240 241 256 258 252 199 156 190 206 212 193 171 175 174 167 166 167 164 161 162 164 163 160 158 160 162 170 169 179 182 189 198 188 202 187 180 165 180 189 192
228 226 218 234 239 238 246 252 256 244 180 199 218 218 202 191 180 173 169 170 173 170 167 166 169 170 168 165 169 173 173 170 180 186 189 205 183 225 198 164 175 192 197 199
235 235 236 226 233 236 242 248 255 260 241 237 226 219 191 190 193 180 175 175 176 173 167 168 170 173 175 172 171 165 166 172 180 188 194 200 198 201 199 192 186 189 197 202
230 220 225 232 232 233 248 258 255 256 256 256 244 237 202 183 191 182 172 173 174 173 168 169 173 174 176 173 169 165 163 170 177 189 192 202 212 210 198 183 171 193 200 207
246 226 221 233 236 234 248 253 250 253 255 249 241 244 215 195 177 165 169 173 174 172 164 161 164 164 172 172 169 165 161 165 171 184 192 199 212 220 223 212 181 200 200 206
231 229 217 228 231 220 227 228 225 228 232 242 231 231 207 160 153 162 160 163 163 161 157 155 159 163 169 169 167 162 159 166 173 183 195 197 211 215 214 230 214 221 217 201
217 217 208 214 227 220 219 227 233 238 239 239 226 220 193 155 153 146 146 154 152 148 152 154 160 160 166 167 163 160 158 166 175 181 189 195 196 213 218 219 234 231 241 218
226 220 200 208 220 227 220 230 243 253 265 260 224 184 171 165 161 147 144 156 157 150 151 156 155 156 161 164 163 164 160 164 172 175 178 187 190 214 231 206 210 239 255 240
254 244 206 199 214 228 238 232 239 247 260 263 244 205 188 164 168 161 155 159 152 147 150 142 142 147 151 157 160 161 158 160 166 172 184 183 189 201 219 244 224 234 272 294
245 248 219 204 211 220 222 232 241 253 256 258 253 245 167 156 165 163 158 148 151 153 147 140 137 144 149 152 154 153 152 156 164 169 176 177 173 186 187 195 288 271 262 267
232 242 231 216 216 228 228 230 230 239 251 267 271 228 119 117 152 157 152 144 148 146 140 140 140 139 142 148 150 148 153 158 159 160 161 165 152 162 177 178 214 284 275 271
228 243 231 220 213 215 231 234 239 239 247 252 254 211 140 119 140 144 144 138 132 124 127 132 127 127 130 129 129 136 143 148 154 156 158 156 157 155 167 160 154 140 360 318
249 241 245 233 221 211 217 231 237 238 237 240 239 197 170 155 148 132 130 127 127 124 121 119 115 117 118 117 119 131 142 148 148 150 158 152 151 152 146 133 125 121 86 51
240 241 247 257 255 239 218 218 227 235 241 246 238 210 184 159 160 149 138 138 135 138 139 131 126 124 124 123 121 121 128 129 135 133 134 126 128 134 135 137 125 110 96 91
231 253 252 249 250 248 242 227 226 228 232 239 248 226 169 143 144 137 138 146 151 157 155 144 137 130 128 128 128 121 116 119 119 120 123 123 132 131 129 125 120 114 99 80
215 237 250 247 243 243 238 235 235 237 229 230 231 203 162 155 137 136 135 146 165 165 150 140 136 130 127 127 119 122 120 116 116 115 116 121 130 126 120 121 101 92 92 89
219 230 244 245 242 238 238 233 240 243 240 225 215 178 167 135 123 124 136 151 159 142 133 127 129 125 125 122 122 122 119 113 108 106 103 102 112 108 100 96 96 104 103 95
214 223 241 242 236 236 231 222 226 232 233 233 203 150 129 128 126 120 114 124 125 117 111 115 125 128 123 125 126 125 125 119 114 111 104 98 99 100 100 99 93 88 92 96
205 210 235 240 240 236 230 220 219 213 208 199 193 149 144 173 189 118 92 93 107 113 111 113 117 115 113 112 118 120 117 109 106 105 101 96 92 101 105 96 86 89 95 95
203 207 224 238 244 239 230 216 210 212 185 132 150 137 140 130 92 105 106 99 103 109 112 108 103 102 99 99 101 101 97 89 87 89 89 84 88 102 101 96 98 100 101 100
211 210 217 233 242 233 200 196 171 100 85 90 95 98 96 95 106 113 112 111 107 108 115 113 108 98 92 95 102 103 99 93 90 88 86 82 79 89 102 105 109 111 119 118
214 210 214 230 215 93 69 85 103 117 107 99 98 99 100 102 110 119 118 117 112 108 116 118 115 109 102 99 105 114 115 114 110 105 101 99 88 78 87 105 116 126 133 133
202 190 174 159 132 107 98 97 108 112 113 103 101 103 103 118 115 114 116 117 118 118 109 112 117 115 114 111 109 118 123 124 122 120 119 117 109 98 79 60 75 74 50 71
305 229 172 166 169 145 122 115 102 94 94 99 94 103 112 105 114 117 119 122 122 119 117 114 115 118 114 104 117 127 129 133 130 130 133 134 119 104 84 62 40 53 53 35
263 278 226 183 194 203 143 140 126 119 120 111 110 100 94 103 115 114 113 118 121 121 121 128 130 129 131 144 139 123 130 137 140 143 147 142 129 126 122 109 82 51 61 60